Weather in Anishino

Russia / Vologda Oblast     58°53′09″N   35°19′10″E
temp.,
°C
wind,
m/s
gust,
m/s
humid.,
%
clouds,
%
prec.,
mm/h
press.,
hPa
HPBL,
m
3 march, wed
wed300:00−5nw311890 0.0 1014385
03:00−5wnw411940 0.0 1015359
06:00−2wnw4109364 0.1 1013816
09:00−1wnw5108982 0.3 1013990
12:000w5108597 0.1 10111034
15:000w5108698 0.1 1009941
18:00−1w51289100 0.1 10061094
21:000w51294100 0.6 1003988
4 march, thu
thu400:000w4109399 1.1 998755
03:00−3wnw5138369 1.3 999898
06:00−6wnw5139035 0.0 999636
09:00−6wnw4108968 0.0 1000606
12:00−4nw478695 0.1 1001686
15:00−4nnw358397 0.1 1002753
18:00−7nnw129186 0.0 100128
21:00−9wnw129266 0.0 100321
5 march, fri
fri500:00−8wnw129796 0.1 100324
03:00−7nw259698 0.8 1004247
06:00−9wnw2596100 0.4 1005199
09:00−9nw3793100 0.7 1006352
12:00−7nw3685100 0.1 1007698
15:00−6nw3582100 0.3 1009854
18:00−8nnw3792100 0.4 1011556
21:00−12nnw2395100 0.4 101480
6 march, sat
sat600:00−14nw229796 0.0 101555
03:00−16wnw229570 0.0 101633
06:00−16w259353 0.0 101694
09:00−12w379476 0.1 1016292
12:00−7w3684100 0.1 1015753
15:00−6wsw4678100 0.1 10131046
18:00−7sw3108498 0.0 1010555
21:00−7ssw6139198 0.1 1005949
7 march, sun
sun700:00−5sw71592100 1.1 9981258
03:00−4sw71592100 2.2 9921226
06:00−3sw71593100 1.2 9881140
09:00−8wnw61564100 3.4 9891329
12:00−7wsw47660 0.0 9901202
15:00−7w5106550 0.6 9901781
18:00−9nw388664 0.1 990361
21:00−13nw269669 0.1 992145